Details From VCBI - Bandaranaike Intl Colombo
To VRMM - Male Intl
Flight Number -
Tags Generated
Created
Modified
Stats Distance 419 nm / 776 km
Max Altitude 0 ft / 0 m
Waypoints 3
Social Downloads 0
Likes 0
Share VATSIM

Download

Looking for another format? Having issues loading an existing format? Contact us
Advertisement - Login to hide

Notes

Generated

Route

VCBI MLE69 VRMM

ID Type Via Altitude Latitude Longitude Leg Dist Tot Dist Heading (true) Name
O VCBI APT - 0 ft / 0 m 7.16874˚ 79.87491˚ - 0 nm - -
MLE69 FIX - 0 ft / 0 m 4.24791˚ 73.65268˚ 411 nm 411 nm 245° / 244° -
O VRMM APT - 0 ft / 0 m 4.20629˚ 73.52889˚ 7 nm 418 nm 251° / 251° -

Altitude Profile

Advertisement - Login to hide

Weather


0- 5 10 15 20 25 30 35+ Temperature / ° C

Clouds and Precipitation
Forecast for 2017-12-16 18:00 UTC. Updated an hour ago

Ground ~20,000 ft ~40,000 ft Winds

VCBI

Details ICAO VCBI (CMB)
Name BANDARANAIKE INTL COLOMBO
Region Sri Lanka
Timezone Asia/Colombo (UTC+5.5)
Stats Elevation 30 ft / 9 m (AMSL)
Location 7.180754° 79.884118°
Runways 1
Magnetic Variation 2.067° W

METAR

VCBI 161610Z 02008KT CAVOK 26/21 Q1013 NOSIG

Decode

TAF

Not found

Departure Runways

ID Width Length Bearing (true) Bearing (mag) Surface Threshold Offset Overrun Length
04 148 ft / 45 m 11,018 ft / 3,358 m 37.25° 39.32° Asphalt 0 ft / 0 m 215 ft / 66 m
22 148 ft / 45 m 11,018 ft / 3,358 m 217.25° 219.32° Asphalt 0 ft / 0 m 300 ft / 91 m

VRMM

Details ICAO VRMM (MLE)
Name MALE INTL
Region Maldives
Timezone Indian/Maldives (UTC+5.0)
Stats Elevation 6 ft / 2 m (AMSL)
Location 4.191832° 73.529128°
Runways 1
Magnetic Variation 2.834° W

METAR

VRMM 161600Z 09018KT 9999 FEW017TCU BKN120 28/24 Q1013 TEMPO 4000 TSRA

Decode

TAF

TAF TAF VRMM 161100Z 1612/1718 09016KT 9999 SCT017TCU TEMPO 1612/1618 09018G35KT 3000 TSRA SCT015 FEW016CB BKN100

Decode

Destination Runways

ID Width Length Bearing (true) Bearing (mag) Surface Threshold Offset Overrun Length
18 148 ft / 45 m 10,556 ft / 3,218 m 179.06° 181.89° Asphalt 328 ft / 100 m 201 ft / 61 m
36 148 ft / 45 m 10,556 ft / 3,218 m 359.06° 1.89° Asphalt 952 ft / 290 m 238 ft / 73 m

Approach Navaids

Runway Type Ident Frequency Range Bearing (true) Bearing (mag) Slope Elevation
36 Localiser IML 108.70 MHz 18 nm / 33 km 359.58° 2.41° - 5 ft / 2 m (AMSL)
36 Glidescope IML 108.70 MHz 10 nm / 19 km 359.06° 1.89° 3.00° 5 ft / 2 m (AMSL)
36 DME IML 108.70 MHz 18 nm / 33 km - - - 22 ft / 7 m (AMSL)

Popular Alternatives